Flag for Singapore Weather past 2 weeks in Singapore, Singapore

Now
86 °F

Thunderstorms. Scattered clouds.


Feels Like: 93 °F
Forecast: 78 / 91 °F
Wind: 9 mph from West

Location: Singapore / Paya Lebar

Current Time: Jul 31, 2015 at 3:40:25 PM

Latest Report: Jul 31, 2015 at 3:00 PM


Visibility: 4 mi

Pressure: 29.83 "Hg

Humidity: 66%

Dew point: 73 °F

Location of SingaporeLocation

Historic Weather in Singapore — Graph

°F

Singapore temperature yesterday

Maximum temperature yesterday: 91 °F (at 1:00 PM)
Minimum temperature yesterday: 82 °F (at 5:00 AM)
Average temperature yesterday: 86 °F

Past Weeks' High & Low Weather Summary

 TemperatureHumidityPressure
High93 °F (Jul 22, 3:00 PM)94% (Jul 25, 7:00 AM)29.95 "Hg (Jul 25, 7:00 AM)
Low79 °F (Jul 26, 1:00 PM)52% (Jul 22, 1:00 PM)29.71 "Hg (Jul 16, 3:00 PM)
Average86 °F72%29.84 "Hg
* Reported Jul 16 2:00 PM — Jul 31 2:00 PM, Singapore, Weather by CustomWeather, © 2015

Note: Actual official high and low records may vary slightly from our data, if they occured in-between our weather recording intervals... More about our weather records

Advertising

Singapore weather history for previous 24 hours

 ConditionsComfort  
Time TempWeatherWind HumidityBarometerVisibility
2:00 PM
Fri, Jul 31
88 °FThundershowers. Broken clouds.21 mph66%29.83 "Hg5 mi
1:00 PM90 °FBroken clouds.12 mph63%29.86 "HgN/A
12:00 PM88 °FPartly sunny.9 mph66%29.86 "HgN/A
11:00 AM86 °FBroken clouds.9 mph75%29.89 "HgN/A
10:00 AM86 °FBroken clouds.9 mph75%29.86 "HgN/A
9:00 AM84 °FBroken clouds.8 mph79%29.86 "HgN/A
8:00 AM81 °FBroken clouds.3 mph94%29.83 "HgN/A
7:00 AM81 °FPassing clouds.No wind89%29.83 "Hg5 mi
6:00 AM81 °FPassing clouds.3 mph89%29.83 "HgN/A
5:00 AM82 °FPassing clouds.2 mph84%29.83 "HgN/A
11:00 PM
Thu, Jul 30
84 °FPassing clouds.6 mph79%29.89 "HgN/A
10:00 PM84 °FPassing clouds.8 mph79%29.86 "HgN/A
9:00 PM84 °FPassing clouds.6 mph79%29.86 "HgN/A
8:00 PM86 °FPassing clouds.3 mph70%29.83 "HgN/A
7:00 PM86 °FPartly sunny.6 mph66%29.80 "HgN/A
6:00 PM86 °FPartly sunny.6 mph70%29.80 "HgN/A
5:00 PM90 °FPartly sunny.8 mph55%29.80 "HgN/A
4:00 PM88 °FPartly sunny.6 mph62%29.83 "HgN/A
3:00 PM86 °FPartly sunny.10 mph62%29.83 "HgN/A
Weather by CustomWeather, © 2015

See weather overviewHow to use our weather pages